Regional Weather Roundup
Issued by NWS Sioux Falls, SD

Home | Current Version | Previous Version | Graphics & Text | Print | Product List | Glossary Off
Versions: 1 2 3 4 5 6 7 8 9 10 11 12 13 14 15 16 17 18 19 20 21 22 23 24 25 26 27 28 29 30 31 32 33 34 35 36 37 38 39 40 41 42 43 44 45 46 47 48 49 50

000
ASUS43 KFSD 240802
RWRFSD

WEATHER ROUNDUP FOR SE SOUTH DAKOTA/SW MINNESOTA/NW IOWA
NATIONAL WEATHER SERVICE SIOUX FALLS SD
300 AM CDT THU JUL 24 2014

NOTE: "FAIR" INDICATES FEW OR NO CLOUDS BELOW 12,000 FEET WITH NO
SIGNIFICANT WEATHER AND OR OBSTRUCTIONS TO VISIBILITY.


SDZ038>040-050-052>070-240900-
SOUTHEAST SOUTH DAKOTA

CITY           SKY/WX    TMP DP  RH WIND       PRES   REMARKS
CHAMBERLAIN    CLOUDY    67  59  75 SE12G20   30.08F
HURON          MOCLDY    64  54  69 SE8       30.11F
MADISON        FAIR      57  57 100 E5        30.17F
MITCHELL       CLEAR     65  59  81 SE8       30.12F
SIOUX FALLS    CLEAR     64  55  72 E7        30.16F
WINNER         PTSUNNY   70  58  65 SE14      30.07F
YANKTON        CLEAR     63  59  88 E6        30.13F
$$

MNZ071-072-080-081-089-090-097-098-240900-
SOUTHWEST MINNESOTA

CITY           SKY/WX    TMP DP  RH WIND       PRES   REMARKS
FAIRMONT       CLEAR     57  50  77 CALM      30.17F
JACKSON        CLEAR     55  52  88 CALM      30.19S
LUVERNE        CLEAR     61  55  82 CALM      30.17F
MARSHALL       CLEAR     59  52  77 CALM      30.16F
MONTEVIDEO     CLEAR     61  55  82 S5        30.16F
PIPESTONE      CLEAR     61  54  77 SE3       30.17F
REDWOOD FALLS  CLEAR     60  53  77 CALM      30.16F
TRACY          CLEAR     64  53  65 S6        30.18S
WINDOM         CLEAR     55  52  88 CALM      30.18F
WORTHINGTON    CLEAR     57  52  82 CALM      30.19F
$$

IAZ001>003-012>014-020>022-031-032-NEZ013-014-SDZ071-240900-
NORTHWEST IOWA

CITY           SKY/WX    TMP DP  RH WIND       PRES   REMARKS
CHEROKEE       PTCLDY    62  60  94 CALM      30.17F
DENISON        CLEAR     64  59  82 E3        30.15F
ESTHERVILLE    PTCLDY    55  52  89 W3        30.18S
LE MARS        PTCLDY    66  61  82 VRB3      30.16F
ORANGE CITY    CLEAR     64  57  77 CALM      30.17F
SHELDON        CLOUDY    59  55  88 E3        30.16F
SIOUX CITY     CLEAR     64  61  90 E5        30.14F
SPENCER        MOCLDY    60  57  89 CALM      30.18S
STORM LAKE     CLEAR     63  59  88 SE3       30.18F
$$

ABBREVIATIONS USED IN REMARKS
   TC - TEMPERATURE IN CELSIUS
  WCI - WIND CHILL INDEX
   HX - HEAT INDEX
  VSB - VISIBILITY



USA.gov is the U.S. government's official web portal to all federal, state and local government web resources and services.